[[{"header":{"parameterUnit":"m.s-1","parameterCategory":1,"la1":30.2991,"la2":30.254,"lo1":-89.0895,"lo2":-89.0444,"dy":0.0017,"dx":0.0017,"nx":28,"ny":28,"refTime":"2023-08-20T09:00:00:Z","depth":0,"parameterNumber":2,"parameterNumberName":"U-component_of_WINDS"},"data":[0,0,0,0,0,0,0,0,0,0,0,0,0,0,0,0,0,0,0,0,0,0,0,0,0,0,0,0,0,0,0,0,0,0,0,0,0,0,0,0,0,0,0,0,0,0,0,0,0,0,0,0,0,0,0,0,0,0,-4.9765,-4.9766,0,-4.98,-4.9801,-4.9801,-4.9626,-4.9621,-4.9616,-4.9611,-4.9652,-4.9657,-4.9663,0,0,0,0,0,0,0,0,0,0,0,0,0,-4.9552,-4.9556,-4.9765,-4.9766,-4.9766,-4.98,-4.9801,-4.9801,-4.9627,-4.9621,-4.9615,-4.9609,-4.965,-4.9657,-4.9664,0,0,0,0,0,0,0,0,0,0,0,0,0,-4.9622,-4.9558,-4.9765,-4.9683,-4.9676,-4.98,-4.9801,-4.9801,-4.9628,-4.9621,-4.9613,-4.9606,-4.9648,-4.9656,-4.9665,-4.987,0,0,-4.9691,-4.9695,0,0,0,0,0,0,0,0,-4.9618,-4.963,-4.9695,-4.9689,-4.9682,-4.9701,-4.974,-4.9825,-4.963,-4.9647,-4.9611,-4.9602,-4.9675,-4.9681,-4.9704,-4.9872,-4.9874,-4.9692,-4.9697,-4.9701,-4.9704,0,0,0,0,0,0,0,-4.9613,-4.9627,-4.9779,-4.9696,-4.9688,-4.9646,-4.9648,-4.9755,-4.9703,-4.9645,-4.9632,-4.9638,-4.967,-4.9696,-4.9704,-4.9875,-4.9692,-4.97,-4.9705,-4.9708,-5.0214,-5.0221,0,0,0,0,0,0,-4.9619,-4.9624,-4.9778,-4.978,-4.963,-4.9656,-4.9658,-4.9703,-4.9701,-4.9694,-4.9645,-4.963,-4.9685,-4.9694,-4.9705,-4.9945,-4.9701,-4.9709,-4.9714,-5.0206,-5.0215,-5.0224,0,0,0,0,0,0,-4.9615,-4.9634,-4.9777,-4.9699,-4.9714,-4.9668,-4.972,-4.9707,-4.9733,-4.9701,-4.9692,-4.9681,-4.9679,-4.9692,-4.983,-4.9944,-4.9713,-4.9721,-5.0196,-5.0209,-5.022,-5.0429,0,0,0,0,0,0,-4.9609,-4.9634,-4.9711,-4.9702,-4.9719,-4.9901,-4.9726,-4.9713,-4.9748,-4.9729,-4.9733,-4.9726,-4.9674,-4.9818,-4.9839,-4.9952,-4.9728,-5.0185,-5.0202,-5.0216,-5.0412,-5.0447,-5.0477,0,0,0,0,0,-4.9602,-4.9769,-4.9715,-4.9735,-4.9813,-4.9908,-4.9918,-4.9853,-4.9758,-4.9836,-4.9815,-4.9726,-4.9928,-4.9834,-4.9856,-4.9973,-5.0178,-5.0197,-5.0215,-5.0397,-5.044,-5.0476,0,0,0,0,0,0,-4.9794,-4.9766,-4.9706,-4.9875,-4.9895,-4.9878,-4.9974,-4.9901,-4.995,-4.993,-4.9849,-4.9852,-5.0004,-5.0002,-4.9897,-5.0172,-5.0037,-5.0061,-5.0168,-5.0208,-5.0241,-5.0238,-4.9735,0,0,0,0,0,-4.9855,-4.9933,-4.9905,-5.0057,-5.007,-5.0021,-5.006,-5.0008,-5.0026,-5.0034,-5.0024,-5.0046,-5.0114,-5.0161,-5.0222,-5.041,-5.0409,-5.0502,-5.0535,-5.0562,-5.0584,-5.0683,-5.0724,-5.0285,-5.0285,-5.0285,0,0,-4.9984,-4.9979,-5.0033,-5.0095,-5.0105,-5.0189,-5.0029,-5.0125,-5.0186,-5.0049,-5.0178,-5.0172,-5.0191,-5.0356,-5.0427,-5.0359,-5.0704,-5.0585,-5.0607,-5.0614,-5.0707,-5.0748,-5.0785,-5.0298,-5.0295,-5.0293,0,0,-5.0261,-5.0265,-5.0391,-5.0403,-5.0419,-5.0385,-5.0416,-5.0411,-5.04,-5.0528,-5.0427,-5.05,-5.062,-5.0637,-5.0663,-5.0947,-5.0867,-5.0969,-5.114,-5.1238,-5.1273,-5.1303,-5.1405,-5.1443,-5.099,-5.0991,-5.0991,0,-5.0419,-5.054,-5.0466,-5.0568,-5.0598,-5.0477,-5.0605,-5.0621,-5.0657,-5.0682,-5.0604,-5.0751,-5.0756,-5.0923,-5.0992,-5.1016,-5.1049,-5.0968,-5.1274,-5.1303,-5.133,-5.1427,-5.1465,-5.1003,-5.1002,-5.1001,-5.1,0,-5.0734,-5.0819,-5.092,-5.0956,-5.0998,-5.1113,-5.1057,-5.1109,-5.1054,-5.1029,-5.1162,-5.1163,-5.1222,-5.1257,-5.1205,-5.1418,-5.1375,-5.1287,-5.1149,-5.1386,-5.1475,-5.1511,-5.1021,-5.1017,-5.1013,-5.101,0,0,-5.1133,-5.1126,-5.1164,-5.1179,-5.1187,-5.1253,-5.1363,-5.1419,-5.1465,-5.1494,-5.1585,-5.1689,-5.1607,-5.1636,-5.1585,-5.1671,-5.1897,-5.1572,-5.1571,-5.1633,-5.2131,-5.2198,-5.2241,-5.1843,-5.185,-5.1856,-5.213,0,-5.1404,-5.1589,-5.1526,-5.1715,-5.1794,-5.1679,-5.1775,-5.1792,-5.1771,-5.1836,-5.1813,-5.1888,-5.1775,-5.1791,-5.1872,-5.1852,-5.1996,-5.1831,-5.1929,-5.1933,-5.1928,-5.2288,-5.2358,-5.2617,-5.2164,-5.217,-5.2174,0,-5.1745,-5.1786,-5.1983,-5.1978,-5.2009,-5.2096,-5.2142,-5.2205,-5.2222,-5.2201,-5.2233,-5.2164,-5.2272,-5.2134,-5.2283,-5.2173,-5.2209,-5.2206,-5.2214,-5.2221,-5.2068,-5.2305,-5.2698,-5.2737,-5.2228,-5.2224,-5.222,0,-5.2017,-5.2122,-5.2253,-5.2269,-5.2267,-5.233,-5.2333,-5.2341,-5.238,-5.2421,-5.2445,-5.25,-5.253,-5.2574,-5.2522,-5.2426,-5.2679,-5.2537,-5.2666,-5.2668,-5.2725,-5.2722,-5.3129,-5.2748,-5.2748,-5.2747,-5.2746,0,-5.2326,-5.2452,-5.2375,-5.2456,-5.2593,-5.2519,-5.2658,-5.2647,-5.2656,-5.2734,-5.2639,-5.2714,-5.264,-5.271,-5.2669,-5.2799,-5.2814,-5.2801,-5.2789,-5.281,-5.2812,-5.2832,-5.2813,-5.2757,-5.2755,-5.2753,-5.2751,0,-5.2653,-5.2607,-5.2742,-5.2728,-5.2728,-5.283,-5.2818,-5.2893,-5.2866,-5.2966,-5.2985,-5.2943,-5.3019,-5.2971,-5.3049,-5.3022,-5.3192,-5.3155,-5.3186,-5.3176,-5.3308,-5.3297,-5.3744,-5.3799,-5.3382,-5.3386,-5.339,0,-5.2854,-5.2947,-5.2943,-5.2987,-5.2995,-5.3069,-5.3106,-5.3038,-5.3082,-5.3108,-5.3181,-5.3248,-5.3299,-5.3427,-5.3404,-5.3464,-5.3428,-5.358,-5.3436,-5.3454,-5.343,-5.3426,-5.3435,-5.3609,-5.3614,-5.3618,-5.3622,0,-5.3215,-5.3187,-5.3245,-5.3295,-5.3343,-5.338,-5.3408,-5.3451,-5.3382,-5.3436,-5.3512,-5.3552,-5.3631,-5.37,-5.375,-5.3753,-5.3678,-5.3667,-5.37,-5.3723,-5.3737,-5.3731,-5.3266,-5.3657,-5.3654,-5.3651,-5.3649,-5.3648,-5.3485,-5.3563,-5.3572,-5.3639,-5.3653,-5.3683,-5.3752,-5.3733,-5.3795,-5.3853,-5.3809,-5.39,-5.3915,-5.3974,-5.3987,-5.4058,-5.3996,-5.4044,-5.4057,-5.407,-5.4088,-5.3725,-5.4067,-5.4066,-5.4065,-5.4064,-5.4063,0,-5.3842,-5.3842,-5.3904,-5.3947,-5.4001,-5.3922,-5.3951,-5.4001,-5.4082,-5.4101,-5.4153,-5.4241,-5.4307,-5.429,-5.435,-5.4411,-5.4377,-5.4429,-5.4424,-5.4426,-5.414,-5.4105,-5.4455,-5.4455,-5.4454,-5.4454,-5.4454,-5.4454,-5.4033,-5.416,-5.4134,-5.4268,-5.4267,-5.4354,-5.4377,-5.4404,-5.4419,-5.4521,-5.4576,-5.4563,-5.4568,-5.4628,-5.4686,-5.4679,-5.4706,-5.4771,-5.4752,-5.4485,-5.4446,-5.4409,-5.4376,-5.4777,-5.4778,-5.5032,-5.5034,-5.5036]},{"header":{"parameterUnit":"m.s-1","parameterCategory":1,"la1":30.2991,"la2":30.254,"lo1":-89.0895,"lo2":-89.0444,"dy":0.0017,"dx":0.0017,"nx":28,"ny":28,"refTime":"2023-08-20T09:00:00:Z","depth":0,"parameterNumber":3,"parameterNumberName":"V-component_of_WINDS"},"data":[0,0,0,0,0,0,0,0,0,0,0,0,0,0,0,0,0,0,0,0,0,0,0,0,0,0,0,0,0,0,0,0,0,0,0,0,0,0,0,0,0,0,0,0,0,0,0,0,0,0,0,0,0,0,0,0,0,0,-1.8957,-1.8956,0,-1.8882,-1.8881,-1.888,-1.8867,-1.8868,-1.8868,-1.8869,-1.8785,-1.8782,-1.878,0,0,0,0,0,0,0,0,0,0,0,0,0,-1.908,-1.9077,-1.8957,-1.8956,-1.8955,-1.8882,-1.8881,-1.888,-1.8867,-1.8868,-1.8868,-1.8869,-1.8786,-1.8783,-1.8779,0,0,0,0,0,0,0,0,0,0,0,0,0,-1.9017,-1.9077,-1.8957,-1.894,-1.8938,-1.8882,-1.8881,-1.888,-1.8867,-1.8868,-1.8869,-1.8869,-1.8787,-1.8783,-1.8779,-1.8734,0,0,-1.8766,-1.8764,0,0,0,0,0,0,0,0,-1.9021,-1.9013,-1.8943,-1.8941,-1.8938,-1.8885,-1.8894,-1.8831,-1.8866,-1.8893,-1.8869,-1.887,-1.8817,-1.8811,-1.8794,-1.873,-1.8726,-1.8766,-1.8763,-1.8761,-1.876,0,0,0,0,0,0,0,-1.9025,-1.9016,-1.8927,-1.8942,-1.8939,-1.8933,-1.8925,-1.8882,-1.8851,-1.8891,-1.889,-1.8882,-1.8816,-1.8798,-1.8792,-1.8725,-1.8766,-1.8762,-1.8759,-1.8758,-1.8615,-1.8613,0,0,0,0,0,0,-1.9034,-1.902,-1.893,-1.8925,-1.8983,-1.893,-1.8921,-1.8901,-1.8851,-1.8845,-1.8881,-1.8881,-1.8805,-1.8797,-1.8789,-1.873,-1.8761,-1.8757,-1.8755,-1.8616,-1.8614,-1.8613,0,0,0,0,0,0,-1.9037,-1.9026,-1.8933,-1.8972,-1.896,-1.8927,-1.8904,-1.8899,-1.8882,-1.8844,-1.8837,-1.8869,-1.8805,-1.8795,-1.8747,-1.8727,-1.8755,-1.8752,-1.8617,-1.8615,-1.8614,-1.8613,0,0,0,0,0,0,-1.904,-1.9027,-1.9012,-1.8972,-1.8958,-1.8895,-1.8903,-1.8897,-1.8875,-1.8875,-1.8831,-1.8824,-1.8805,-1.8753,-1.8743,-1.8722,-1.8748,-1.8619,-1.8617,-1.8614,-1.8615,-1.8611,-1.8609,0,0,0,0,0,-1.9045,-1.9014,-1.9011,-1.9,-1.8938,-1.8894,-1.8885,-1.8866,-1.8874,-1.8856,-1.8831,-1.8826,-1.8731,-1.8749,-1.8737,-1.8714,-1.862,-1.8617,-1.8614,-1.8616,-1.8612,-1.8609,0,0,0,0,0,0,-1.9051,-1.9009,-1.9005,-1.8961,-1.8931,-1.8892,-1.8869,-1.8863,-1.8829,-1.8829,-1.8805,-1.8795,-1.8747,-1.8726,-1.8746,-1.8665,-1.8676,-1.867,-1.8681,-1.8677,-1.8674,-1.8679,-1.8745,0,0,0,0,0,-1.9048,-1.9017,-1.8981,-1.8946,-1.8931,-1.8903,-1.8882,-1.887,-1.8837,-1.8824,-1.8795,-1.8761,-1.8723,-1.8699,-1.8663,-1.8612,-1.8599,-1.8589,-1.8586,-1.8584,-1.8579,-1.8546,-1.8541,-1.8604,-1.8604,-1.8604,0,0,-1.904,-1.9013,-1.8995,-1.8946,-1.8922,-1.8887,-1.8892,-1.8857,-1.883,-1.8818,-1.8771,-1.8748,-1.8708,-1.8658,-1.8634,-1.8638,-1.8559,-1.8581,-1.8579,-1.8575,-1.8543,-1.8537,-1.8532,-1.8602,-1.8602,-1.8602,0,0,-1.9008,-1.8986,-1.8953,-1.8928,-1.8891,-1.8871,-1.8863,-1.8824,-1.8809,-1.8762,-1.8751,-1.8717,-1.8654,-1.8624,-1.8601,-1.8555,-1.8547,-1.8543,-1.8527,-1.8495,-1.849,-1.8486,-1.8466,-1.8459,-1.8539,-1.8539,-1.8539,0,-1.9002,-1.8953,-1.8936,-1.89,-1.8877,-1.8866,-1.8829,-1.8805,-1.8757,-1.874,-1.8746,-1.8664,-1.8636,-1.8577,-1.8565,-1.8548,-1.8535,-1.8548,-1.8493,-1.8488,-1.8483,-1.8464,-1.8457,-1.8539,-1.8539,-1.8539,-1.8539,0,-1.8946,-1.8912,-1.8889,-1.8844,-1.8819,-1.8783,-1.8757,-1.8732,-1.8721,-1.8701,-1.865,-1.8616,-1.8571,-1.8556,-1.8545,-1.8494,-1.8497,-1.8498,-1.8508,-1.8477,-1.8458,-1.8451,-1.8538,-1.8538,-1.8538,-1.8538,0,0,-1.8917,-1.8862,-1.8853,-1.8831,-1.8788,-1.876,-1.8722,-1.8679,-1.8657,-1.8623,-1.8588,-1.8533,-1.8533,-1.8507,-1.8492,-1.8465,-1.8425,-1.8468,-1.8467,-1.8459,-1.8362,-1.836,-1.8352,-1.842,-1.8419,-1.8418,-1.8365,0,-1.8878,-1.8813,-1.8794,-1.8737,-1.8703,-1.869,-1.8656,-1.8624,-1.8603,-1.8568,-1.8543,-1.8504,-1.8509,-1.8492,-1.8464,-1.8436,-1.8405,-1.844,-1.8384,-1.8382,-1.8393,-1.8343,-1.8342,-1.8293,-1.8358,-1.8356,-1.8356,0,-1.8825,-1.8791,-1.8731,-1.8689,-1.8674,-1.8645,-1.8602,-1.857,-1.8532,-1.8518,-1.8487,-1.8474,-1.8429,-1.8443,-1.8379,-1.8403,-1.8378,-1.836,-1.8358,-1.835,-1.8366,-1.8332,-1.8278,-1.827,-1.8344,-1.8345,-1.8346,0,-1.8806,-1.8745,-1.8701,-1.8683,-1.8634,-1.8613,-1.8591,-1.8553,-1.8528,-1.8489,-1.8472,-1.8428,-1.8404,-1.8369,-1.8342,-1.8355,-1.8279,-1.8291,-1.8263,-1.8263,-1.8247,-1.8248,-1.8186,-1.8235,-1.8235,-1.8235,-1.8235,0,-1.8763,-1.8726,-1.8692,-1.8664,-1.8621,-1.8598,-1.8555,-1.8532,-1.8498,-1.8463,-1.8449,-1.8416,-1.8384,-1.8345,-1.8324,-1.8272,-1.8261,-1.8246,-1.824,-1.8246,-1.8248,-1.8229,-1.823,-1.8233,-1.8233,-1.8234,-1.8234,0,-1.8735,-1.8711,-1.8661,-1.8619,-1.8607,-1.8576,-1.8538,-1.8509,-1.8486,-1.8442,-1.843,-1.8393,-1.8347,-1.8317,-1.8258,-1.8243,-1.8185,-1.8182,-1.8199,-1.8195,-1.8168,-1.817,-1.809,-1.8076,-1.8137,-1.8136,-1.8136,0,-1.8709,-1.8681,-1.8635,-1.8611,-1.8589,-1.8552,-1.8525,-1.85,-1.8473,-1.8425,-1.84,-1.8353,-1.8314,-1.8239,-1.8205,-1.8158,-1.8152,-1.8127,-1.8145,-1.815,-1.8148,-1.8149,-1.8144,-1.8123,-1.8123,-1.8123,-1.8122,0,-1.8664,-1.8653,-1.8617,-1.8575,-1.8545,-1.8511,-1.8476,-1.8457,-1.8425,-1.8394,-1.8347,-1.8317,-1.8256,-1.8207,-1.8157,-1.813,-1.8119,-1.8117,-1.8107,-1.8112,-1.8122,-1.8113,-1.8188,-1.8119,-1.8119,-1.8119,-1.8119,-1.812,-1.8634,-1.8607,-1.857,-1.8529,-1.85,-1.8468,-1.8437,-1.8411,-1.8372,-1.8321,-1.8308,-1.8258,-1.8215,-1.8147,-1.8119,-1.8077,-1.808,-1.8067,-1.8063,-1.8059,-1.8057,-1.813,-1.8068,-1.8068,-1.8068,-1.8068,-1.8068,0,-1.8586,-1.8561,-1.8524,-1.8476,-1.8443,-1.8438,-1.8398,-1.837,-1.8327,-1.829,-1.8251,-1.8194,-1.8147,-1.8108,-1.8058,-1.8031,-1.8024,-1.8019,-1.8019,-1.8012,-1.8059,-1.8071,-1.8025,-1.8025,-1.8025,-1.8025,-1.8025,-1.8025,-1.8557,-1.8509,-1.8493,-1.8429,-1.8404,-1.8356,-1.8333,-1.8301,-1.8271,-1.821,-1.817,-1.8147,-1.8107,-1.8054,-1.8008,-1.7997,-1.7978,-1.7973,-1.7961,-1.8005,-1.801,-1.8014,-1.8025,-1.7969,-1.7969,-1.7917,-1.7916,-1.7916]}]]